CW9792 Weather Reports


time (UTC)temp
C
wind
direction
speed
KPH
gust
KPH
rain 1hr
cm
rain 24hr
cm
rain mn
cm
humidity
%
barometer
mb
20260906161555 24 17 0.0 0.0 0.00 0.46 0.00 70 1014.0
20260906161055 24 42 0.0 0.0 0.00 0.46 0.00 70 1014.0
20260906160555 24 19 0.0 1.6 0.00 0.46 0.00 70 1014.1
20260906160057 24 51 0.0 1.6 0.00 0.46 0.00 70 1014.2
20260906155554 24 30 0.0 1.6 0.00 0.46 0.00 70 1014.2
20260906155057 24 36 0.0 1.6 0.00 0.46 0.00 71 1014.1
20260906154554 24 34 0.0 0.0 0.00 0.46 0.00 71 1014.2
20260906154054 24 25 0.0 0.0 0.00 0.46 0.00 71 1014.2
20260906153556 23 25 0.0 0.0 0.00 0.46 0.00 71 1014.2
20260906153052 23 15 0.0 0.0 0.00 0.46 0.00 71 1014.1
20260906152551 23 42 0.0 1.6 0.00 0.46 0.00 71 1014.1
20260906152050 23 38 0.0 1.6 0.00 0.46 0.00 72 1014.0
20260906151549 23 24 0.0 0.0 0.00 0.46 0.00 72 1013.9
20260906151048 23 29 0.0 1.6 0.00 0.46 0.00 72 1013.9
20260906150547 23 10 0.0 1.6 0.00 0.46 0.00 72 1013.8
20260906150058 23 360 0.0 1.6 0.00 0.46 0.00 72 1013.8
20260906145548 23 40 0.0 1.6 0.00 0.46 0.00 73 1013.8
20260906145048 23 34 0.0 0.0 0.00 0.46 0.00 73 1013.7
20260906144548 23 26 0.0 0.0 0.00 0.46 0.00 74 1013.7
20260906144046 23 33 0.0 1.6 0.00 0.46 0.00 74 1013.7
20260906143545 23 46 0.0 1.6 0.00 0.46 0.00 74 1013.7
20260906143050 23 22 0.0 1.6 0.00 0.46 0.00 74 1013.6
20260906142543 23 32 0.0 1.6 0.00 0.46 0.00 75 1013.6
20260906142044 23 38 0.0 0.0 0.00 0.46 0.00 75 1013.7
20260906141548 22 35 0.0 0.0 0.00 0.46 0.00 75 1013.5
20260906141043 22 22 0.0 0.0 0.00 0.46 0.00 75 1013.7
20260906140543 22 26 0.0 0.0 0.00 0.46 0.00 75 1013.7
20260906140054 22 20 0.0 0.0 0.00 0.46 0.00 76 1013.6
20260906135544 22 31 0.0 0.0 0.00 0.46 0.00 76 1013.6
20260906135042 22 31 0.0 0.0 0.00 0.46 0.00 76 1013.5
20260906134543 22 49 0.0 0.0 0.00 0.46 0.00 76 1013.5
20260906134045 22 49 0.0 0.0 0.00 0.46 0.00 76 1013.5
20260906133541 22 45 0.0 0.0 0.00 0.46 0.00 76 1013.5
20260906133106 22 51 0.0 0.0 0.00 0.46 0.00 76 1013.5
20260906132541 22 26 0.0 0.0 0.00 0.46 0.00 76 1013.4
20260906132040 22 26 0.0 0.0 0.00 0.46 0.00 76 1013.5
20260906131540 22 26 0.0 0.0 0.00 0.46 0.00 76 1013.5
20260906131042 22 26 0.0 0.0 0.00 0.46 0.00 76 1013.5
20260906130539 22 26 0.0 0.0 0.00 0.46 0.00 76 1013.5
20260906130039 22 26 0.0 0.0 0.00 0.46 0.00 76 1013.4
20260906125538 22 26 0.0 0.0 0.00 0.46 0.00 76 1013.4
20260906125037 21 26 0.0 0.0 0.00 0.46 0.00 76 1013.3
20260906124536 21 40 0.0 0.0 0.00 0.46 0.00 76 1013.2
20260906124037 21 250 0.0 0.0 0.00 0.46 0.00 76 1013.1
20260906123536 21 250 0.0 0.0 0.00 0.46 0.00 76 1013.1
20260906123036 21 250 0.0 0.0 0.00 0.46 0.00 76 1013.1
20260906122534 21 250 0.0 0.0 0.00 0.46 0.00 76 1012.9
20260906122034 21 249 0.0 0.0 0.00 0.46 0.00 76 1012.9
20260906121536 21 327 0.0 0.0 0.00 0.46 0.00 76 1012.8
20260906121033 21 331 0.0 0.0 0.00 0.46 0.00 76 1012.8
20260906120532 21 331 0.0 0.0 0.00 0.46 0.00 76 1012.6
20260906120034 21 331 0.0 0.0 0.00 0.46 0.00 76 1012.6
20260906115531 21 331 0.0 0.0 0.00 0.46 0.00 76 1012.5
20260906115031 21 331 0.0 0.0 0.00 0.46 0.00 76 1012.4
20260906114543 20 331 0.0 0.0 0.00 0.46 0.00 76 1012.4
20260906114030 20 331 0.0 0.0 0.00 0.46 0.00 76 1012.4
20260906113530 20 336 0.0 0.0 0.00 0.46 0.00 76 1012.4
20260906113029 20 336 0.0 0.0 0.00 0.46 0.00 76 1012.2
20260906112528 20 336 0.0 0.0 0.00 0.46 0.00 76 1012.2
20260906112028 20 335 0.0 0.0 0.00 0.46 0.00 76 1012.2
20260906111528 20 336 0.0 0.0 0.00 0.46 0.00 76 1012.2
20260906111027 20 335 0.0 0.0 0.00 0.46 0.00 75 1012.0
20260906110527 20 335 0.0 0.0 0.00 0.46 0.00 76 1012.0
20260906110025 20 335 0.0 0.0 0.00 0.46 0.00 75 1012.0
20260906105525 20 335 0.0 0.0 0.00 0.46 0.00 76 1011.9
20260906105027 20 335 0.0 0.0 0.00 0.46 0.00 76 1011.9
20260906104525 20 335 0.0 0.0 0.00 0.46 0.00 76 1011.8
20260906104022 20 335 0.0 0.0 0.00 0.46 0.00 76 1011.6
20260906103521 20 335 0.0 0.0 0.00 0.46 0.00 76 1011.5
20260906103021 21 335 0.0 0.0 0.00 0.46 0.00 76 1011.5
20260906102526 21 336 0.0 0.0 0.00 0.46 0.00 76 1011.4
20260906102020 21 336 0.0 0.0 0.00 0.46 0.00 76 1011.4
20260906101523 21 336 0.0 0.0 0.00 0.46 0.00 75 1011.4
20260906101019 21 336 0.0 0.0 0.00 0.46 0.00 75 1011.4
20260906100521 21 336 0.0 0.0 0.00 0.46 0.00 75 1011.4
20260906100024 21 336 0.0 0.0 0.00 0.46 0.00 75 1011.4
20260906095525 21 335 0.0 0.0 0.00 0.46 0.00 75 1011.4
20260906095018 21 335 0.0 0.0 0.00 0.46 0.00 75 1011.3
20260906094518 21 336 0.0 0.0 0.00 0.46 0.00 75 1011.3
20260906094021 21 335 0.0 0.0 0.00 0.46 0.00 75 1011.2
20260906093518 21 335 0.0 0.0 0.00 0.46 0.00 75 1011.3
20260906093020 21 335 0.0 1.6 0.00 0.46 0.00 75 1011.3
20260906092516 20 335 0.0 1.6 0.00 0.46 0.00 75 1011.2
20260906092019 21 335 0.0 0.0 0.00 0.46 0.00 75 1011.2
20260906091523 21 336 0.0 0.0 0.00 0.46 0.00 75 1011.1
20260906091015 21 336 0.0 0.0 0.00 0.46 0.00 75 1011.1
20260906090517 21 336 0.0 0.0 0.00 0.46 0.00 75 1011.1
20260906090016 21 336 0.0 0.0 0.00 0.46 0.00 75 1011.1
20260906085514 21 336 0.0 0.0 0.00 0.46 0.00 75 1011.1
20260906085013 21 336 0.0 0.0 0.00 0.46 0.00 75 1011.1
20260906084513 21 336 0.0 0.0 0.00 0.46 0.00 75 1011.0
20260906084012 21 336 0.0 0.0 0.00 0.46 0.00 75 1011.0
20260906083513 21 336 0.0 0.0 0.00 0.46 0.00 75 1010.9
20260906083012 21 336 0.0 0.0 0.00 0.46 0.00 74 1010.9
20260906082511 21 336 0.0 0.0 0.00 0.46 0.00 74 1011.0
20260906082011 21 336 0.0 0.0 0.00 0.46 0.00 74 1011.0
20260906081517 21 336 0.0 0.0 0.00 0.46 0.00 74 1011.0
20260906081011 21 336 0.0 0.0 0.00 0.46 0.00 74 1010.9
20260906080511 21 336 0.0 0.0 0.00 0.46 0.00 74 1010.9
20260906080013 21 336 0.0 0.0 0.00 0.46 0.00 74 1011.0
20260906075510 21 336 0.0 0.0 0.00 0.46 0.00 74 1011.0
20260906075013 21 336 0.0 0.0 0.00 0.46 0.00 74 1011.0
20260906074509 21 336 0.0 0.0 0.00 0.46 0.00 74 1010.9
20260906074008 21 336 0.0 0.0 0.00 0.46 0.00 74 1010.9
20260906073508 21 336 0.0 0.0 0.00 0.46 0.00 74 1010.9
20260906073008 22 336 0.0 0.0 0.00 0.46 0.00 74 1010.9
20260906072507 22 336 0.0 0.0 0.00 0.46 0.00 74 1010.8
20260906072008 22 336 0.0 0.0 0.00 0.46 0.00 73 1010.9
20260906071506 22 336 0.0 0.0 0.00 0.46 0.00 73 1010.8
20260906071006 22 336 0.0 0.0 0.00 0.46 0.00 74 1010.8
20260906070505 22 336 0.0 0.0 0.00 0.46 0.00 74 1010.8
20260906070005 22 336 0.0 0.0 0.00 0.46 0.00 74 1010.9
20260906065505 22 336 0.0 0.0 0.00 0.46 0.00 73 1011.0
20260906065005 22 336 0.0 0.0 0.00 0.46 0.00 73 1011.0
20260906064504 22 336 0.0 0.0 0.00 0.46 0.00 73 1011.1
20260906064004 22 336 0.0 0.0 0.00 0.46 0.00 73 1011.2
20260906063507 22 336 0.0 0.0 0.00 0.46 0.00 73 1011.2
20260906063003 22 294 0.0 0.0 0.00 0.46 0.00 73 1011.2
20260906062502 22 294 0.0 0.0 0.00 0.46 0.00 72 1011.2
20260906062002 22 294 0.0 0.0 0.00 0.46 0.00 72 1011.1
20260906061503 22 271 0.0 0.0 0.00 0.46 0.00 72 1011.1
20260906061002 22 213 0.0 0.0 0.00 0.46 0.00 72 1010.9
20260906060502 22 213 0.0 0.0 0.00 0.46 0.00 72 1010.9
20260906060002 23 213 0.0 0.0 0.00 0.46 0.00 71 1010.9
20260906055503 23 213 0.0 0.0 0.00 0.46 0.00 71 1010.9
20260906055002 23 213 0.0 0.0 0.00 0.46 0.00 72 1010.8
20260906054501 23 213 0.0 0.0 0.00 0.46 0.00 72 1010.9
20260906054100 23 213 0.0 0.0 0.00 0.46 0.00 72 1010.9
20260906053559 23 211 0.0 0.0 0.00 0.46 0.00 72 1011.1
20260906053101 23 218 0.0 0.0 0.00 0.46 0.00 72 1011.1
20260906052558 23 218 0.0 0.0 0.00 0.46 0.00 72 1011.1
20260906052058 23 223 0.0 0.0 0.00 0.46 0.00 72 1011.2
20260906051611 23 223 0.0 0.0 0.00 0.46 0.00 72 1011.2
20260906051057 22 223 0.0 0.0 0.00 0.46 0.00 72 1011.2
20260906050559 22 223 0.0 0.0 0.00 0.46 0.00 72 1011.1
20260906050057 22 223 0.0 0.0 0.00 0.46 0.00 73 1011.1
20260906045557 22 217 0.0 0.0 0.00 0.46 0.00 73 1011.1
20260906045100 22 215 0.0 0.0 0.00 0.46 0.00 73 1011.2
20260906044606 22 215 0.0 0.0 0.00 0.46 0.00 73 1011.2
20260906044056 22 213 0.0 0.0 0.00 0.46 0.00 73 1011.2
20260906043556 22 226 0.0 0.0 0.00 0.46 0.00 74 1011.2
20260906043054 22 227 0.0 0.0 0.00 0.46 0.00 75 1011.2
20260906042553 22 203 0.0 0.0 0.00 0.46 0.00 75 1011.0
20260906042053 22 213 0.0 0.0 0.00 0.46 0.00 75 1011.0
20260906041553 22 198 0.0 0.0 0.00 0.46 0.00 75 1011.0
20260906041052 22 191 0.0 0.0 0.00 0.46 0.00 75 1011.0
20260906040551 22 189 0.0 0.0 0.00 0.46 0.00 75 1011.1
20260906040126 22 189 0.0 0.0 0.00 0.46 0.00 75 1011.1
20260906035550 22 189 0.0 0.0 0.00 0.46 0.46 75 1011.1
20260906035050 22 189 0.0 0.0 0.00 0.46 0.46 75 1011.1
20260906034602 22 189 0.0 0.0 0.00 0.46 0.46 75 1011.1
20260906034049 22 189 0.0 0.0 0.00 0.46 0.46 75 1011.0
20260906033549 22 190 0.0 0.0 0.00 0.46 0.46 75 1010.9
20260906033103 22 190 0.0 0.0 0.00 0.46 0.46 75 1010.9
20260906032549 22 194 0.0 0.0 0.00 0.46 0.46 75 1011.0
20260906032049 22 201 0.0 0.0 0.00 0.46 0.46 75 1011.0
20260906031549 22 215 0.0 0.0 0.00 0.46 0.46 76 1010.9
20260906031049 22 211 0.0 0.0 0.00 0.46 0.46 76 1010.9
20260906030549 22 192 0.0 0.0 0.00 0.46 0.46 76 1011.0
20260906030049 22 199 0.0 0.0 0.00 0.46 0.46 76 1011.0
20260906025548 22 194 0.0 0.0 0.00 0.46 0.46 76 1011.0
20260906025048 22 194 0.0 0.0 0.00 0.46 0.46 76 1011.1
20260906024600 22 183 0.0 0.0 0.00 0.46 0.46 76 1011.0
20260906024048 22 183 0.0 0.0 0.00 0.46 0.46 76 1010.9
20260906023547 22 183 0.0 0.0 0.00 0.46 0.46 76 1010.8
20260906023057 22 184 0.0 0.0 0.00 0.46 0.46 76 1010.9
20260906022548 22 184 0.0 0.0 0.03 0.46 0.46 76 1010.8
20260906022047 23 207 0.0 0.0 0.03 0.46 0.46 76 1010.9
20260906021547 22 207 0.0 0.0 0.30 0.46 0.46 76 1010.8
20260906021046 22 209 0.0 0.0 0.46 0.46 0.46 76 1010.9
20260906020546 22 209 0.0 0.0 0.46 0.46 0.46 76 1011.1
20260906020047 22 217 0.0 0.0 0.46 0.46 0.46 76 1011.1
20260906015546 22 219 0.0 0.0 0.46 0.46 0.46 76 1011.0
20260906015046 22 227 0.0 0.0 0.46 0.46 0.46 75 1010.9
20260906014546 22 229 0.0 0.0 0.46 0.46 0.46 75 1010.7
20260906014046 22 232 0.0 0.0 0.46 0.46 0.46 75 1010.5
20260906013545 22 213 0.0 1.6 0.46 0.46 0.46 75 1010.1
20260906013044 22 132 0.0 1.6 0.46 0.46 0.46 73 1009.9
20260906012544 22 150 0.0 1.6 0.43 0.43 0.43 72 1010.0
20260906012042 22 141 0.0 1.6 0.43 0.43 0.43 65 1009.8
20260906011541 26 288 0.0 1.6 0.15 0.15 0.15 58 1010.6
20260906011041 28 335 0.0 0.0 0.00 0.00 0.00 58 1009.7
20260906010541 28 24 0.0 0.0 0.00 0.00 0.00 57 1009.4
20260906010041 28 24 0.0 0.0 0.00 0.00 0.00 58 1009.6
20260906005543 29 24 0.0 0.0 0.00 0.00 0.00 56 1009.4
20260906005040 29 24 0.0 0.0 0.00 0.00 0.00 55 1009.4
20260906004540 29 24 0.0 0.0 0.00 0.00 0.00 55 1009.5
20260906004039 30 24 0.0 0.0 0.00 0.00 0.00 55 1009.4
20260906003540 30 24 0.0 0.0 0.00 0.00 0.00 54 1009.4
20260906003039 30 24 0.0 0.0 0.00 0.00 0.00 54 1009.4
20260906002541 30 24 0.0 0.0 0.00 0.00 0.00 54 1009.5
20260906002042 30 24 0.0 0.0 0.00 0.00 0.00 54 1009.5
20260906001539 30 24 0.0 0.0 0.00 0.00 0.00 53 1009.6
20260906001038 31 24 0.0 0.0 0.00 0.00 0.00 51 1009.7
20260906000538 31 24 0.0 0.0 0.00 0.00 0.00 50 1009.8
20260906000038 31 24 0.0 0.0 0.00 0.00 0.00 50 1010.0
20260905235540 31 24 0.0 0.0 0.00 0.00 0.00 49 1010.2
20260905235038 31 24 0.0 0.0 0.00 0.00 0.00 49 1010.2
20260905234538 32 24 0.0 0.0 0.00 0.00 0.00 49 1010.3
20260905234037 32 24 0.0 0.0 0.00 0.00 0.00 47 1010.3
20260905233537 32 24 0.0 0.0 0.00 0.00 0.00 47 1010.3
20260905233037 32 24 0.0 0.0 0.00 0.00 0.00 47 1010.1
20260905232536 32 24 0.0 0.0 0.00 0.00 0.00 46 1010.2
20260905232036 32 24 0.0 0.0 0.00 0.00 0.00 45 1010.1
20260905231537 32 24 0.0 0.0 0.00 0.00 0.00 44 1009.9
20260905231036 33 20 0.0 0.0 0.00 0.00 0.00 44 1009.8
20260905230536 33 19 0.0 0.0 0.00 0.00 0.00 44 1009.8
20260905230036 33 32 0.0 0.0 0.00 0.00 0.00 43 1009.7
20260905225536 33 32 0.0 0.0 0.00 0.00 0.00 43 1009.6
20260905225036 33 32 0.0 0.0 0.00 0.00 0.00 43 1009.6
20260905224607 33 33 0.0 0.0 0.00 0.00 0.00 42 1009.6
20260905224036 33 32 0.0 0.0 0.00 0.00 0.00 42 1009.7
20260905223535 33 34 0.0 0.0 0.00 0.00 0.00 42 1009.6
20260905223042 33 19 0.0 0.0 0.00 0.00 0.00 42 1009.6
20260905222535 33 36 0.0 0.0 0.00 0.00 0.00 42 1009.7
20260905222037 33 9 0.0 0.0 0.00 0.00 0.00 42 1009.7
20260905221536 33 355 0.0 0.0 0.00 0.00 0.00 41 1009.7
20260905221035 33 360 0.0 0.0 0.00 0.00 0.00 40 1009.7
20260905220534 33 5 0.0 0.0 0.00 0.00 0.00 39 1009.6
20260905220034 33 22 0.0 0.0 0.00 0.00 0.00 39 1009.6
20260905215534 33 17 0.0 0.0 0.00 0.00 0.00 40 1009.6
20260905215032 33 360 0.0 0.0 0.00 0.00 0.00 40 1009.7
20260905214538 33 18 0.0 0.0 0.00 0.00 0.00 39 1009.7
20260905214032 33 346 0.0 0.0 0.00 0.00 0.00 40 1009.7
20260905213533 34 314 0.0 0.0 0.00 0.00 0.00 40 1009.8
20260905213033 33 348 0.0 0.0 0.00 0.00 0.00 40 1009.9
20260905212535 34 347 0.0 0.0 0.00 0.00 0.00 39 1009.8
20260905212030 34 343 0.0 0.0 0.00 0.00 0.00 39 1009.7
20260905211542 34 360 0.0 0.0 0.00 0.00 0.00 40 1009.8
20260905211032 34 355 0.0 0.0 0.00 0.00 0.00 38 1009.8
20260905210530 34 11 0.0 0.0 0.00 0.00 0.00 38 1009.8
20260905210040 35 344 0.0 0.0 0.00 0.00 0.00 37 1010.0
20260905205529 35 304 0.0 0.0 0.00 0.00 0.00 38 1009.9
20260905205029 35 328 0.0 1.6 0.00 0.00 0.00 36 1010.0
20260905204528 36 290 0.0 1.6 0.00 0.00 0.00 36 1010.0
20260905204027 35 340 0.0 0.0 0.00 0.00 0.00 38 1010.1
20260905203527 35 346 0.0 0.0 0.00 0.00 0.00 37 1010.2
20260905203027 34 303 0.0 0.0 0.00 0.00 0.00 39 1010.3
20260905202527 34 300 0.0 0.0 0.00 0.00 0.00 40 1010.3
20260905202024 33 327 0.0 0.0 0.00 0.00 0.00 41 1010.4
20260905201524 33 285 0.0 1.6 0.00 0.00 0.00 40 1010.5
20260905201024 33 238 0.0 0.0 0.00 0.00 0.00 41 1010.6
20260905200527 33 291 0.0 0.0 0.00 0.00 0.00 40 1010.7
20260905200027 35 296 0.0 0.0 0.00 0.00 0.00 39 1010.7
20260905195523 35 339 0.0 0.0 0.00 0.00 0.00 38 1010.7
20260905195026 35 301 0.0 0.0 0.00 0.00 0.00 38 1010.7
20260905194521 35 5 0.0 0.0 0.00 0.00 0.00 37 1010.8
20260905194021 35 349 0.0 0.0 0.00 0.00 0.00 38 1011.0
20260905193522 35 283 0.0 0.0 0.00 0.00 0.00 38 1011.0
20260905193019 35 333 0.0 0.0 0.00 0.00 0.00 38 1011.1
20260905192520 35 342 0.0 0.0 0.00 0.00 0.00 38 1011.1
20260905192020 35 256 0.0 0.0 0.00 0.00 0.00 39 1011.1
20260905191518 35 261 0.0 0.0 0.00 0.00 0.00 37 1011.1
20260905191019 36 209 0.0 0.0 0.00 0.00 0.00 36 1011.2
20260905190517 35 277 0.0 0.0 0.00 0.00 0.00 37 1011.3
20260905190017 35 290 0.0 1.6 0.00 0.00 0.00 37 1011.4
20260905185516 36 251 0.0 1.6 0.00 0.00 0.00 36 1011.4
20260905185014 35 46 0.0 0.0 0.00 0.00 0.00 37 1011.6
20260905184525 34 28 0.0 0.0 0.00 0.00 0.00 38 1011.8
20260905184014 33 24 0.0 0.0 0.00 0.00 0.00 39 1011.8
20260905183514 33 350 0.0 0.0 0.00 0.00 0.00 39 1011.9
20260905183013 34 309 0.0 0.0 0.00 0.00 0.00 39 1011.9
20260905182512 34 150 0.0 0.0 0.00 0.00 0.00 39 1012.0
20260905182012 34 159 0.0 0.0 0.00 0.00 0.00 38 1012.0
20260905181512 34 156 0.0 0.0 0.00 0.00 0.00 39 1012.0
20260905181012 34 208 0.0 0.0 0.00 0.00 0.00 39 1012.0
20260905180515 34 181 0.0 0.0 0.00 0.00 0.00 39 1012.1
20260905180011 34 178 0.0 0.0 0.00 0.00 0.00 40 1012.3
20260905175511 33 306 0.0 0.0 0.00 0.00 0.00 39 1012.4
20260905175011 34 144 0.0 0.0 0.00 0.00 0.00 39 1012.4
20260905174510 34 140 0.0 0.0 0.00 0.00 0.00 38 1012.5
20260905174009 33 144 0.0 0.0 0.00 0.00 0.00 39 1012.5
20260905173509 33 25 0.0 0.0 0.00 0.00 0.00 40 1012.7
20260905173007 33 131 0.0 0.0 0.00 0.00 0.00 40 1012.7
20260905172508 33 68 0.0 0.0 0.00 0.00 0.00 39 1012.8
20260905172009 33 142 0.0 0.0 0.00 0.00 0.00 40 1012.8
20260905171505 33 144 0.0 0.0 0.00 0.00 0.00 40 1012.8
20260905171004 32 90 0.0 0.0 0.00 0.00 0.00 42 1012.7
20260905170504 33 110 0.0 0.0 0.00 0.00 0.00 40 1012.9
20260905170004 32 111 0.0 0.0 0.00 0.00 0.00 42 1013.0
20260905165501 32 140 0.0 0.0 0.00 0.00 0.00 44 1013.2
20260905165100 32 111 0.0 0.0 0.00 0.00 0.00 45 1013.2
20260905164607 31 76 0.0 0.0 0.00 0.00 0.00 45 1013.2
20260905164058 31 105 0.0 0.0 0.00 0.00 0.00 46 1013.3
20260905163558 31 123 0.0 0.0 0.00 0.00 0.00 46 1013.3
20260905163059 31 142 0.0 0.0 0.00 0.00 0.00 47 1013.4
20260905162556 31 113 0.0 0.0 0.00 0.00 0.00 49 1013.6
20260905162054 30 138 0.0 0.0 0.00 0.00 0.00 50 1013.5